Index of /20260414/WXO-DD/model_rdps/10km/18/002
Name Last modified Size Description
Parent Directory -
20260414T18Z_MSC_RDPS_AbsoluteVorticity_IsbL-0250_RLatLon0.09_PT002H.grib2 2026-04-14 20:40 586K
20260414T18Z_MSC_RDPS_AbsoluteVorticity_IsbL-0500_RLatLon0.09_PT002H.grib2 2026-04-14 20:40 549K
20260414T18Z_MSC_RDPS_AbsoluteVorticity_IsbL-0700_RLatLon0.09_PT002H.grib2 2026-04-14 20:40 610K
20260414T18Z_MSC_RDPS_AbsoluteVorticity_IsbL-0850_RLatLon0.09_PT002H.grib2 2026-04-14 20:40 780K
20260414T18Z_MSC_RDPS_AirTemp_AGL-120m_RLatLon0.09_PT002H.grib2 2026-04-14 20:40 394K
20260414T18Z_MSC_RDPS_AirTemp_AGL-2m_RLatLon0.09_PT002H.grib2 2026-04-14 20:40 630K
20260414T18Z_MSC_RDPS_AirTemp_AGL-40m_RLatLon0.09_PT002H.grib2 2026-04-14 20:40 404K
20260414T18Z_MSC_RDPS_AirTemp_AGL-80m_RLatLon0.09_PT002H.grib2 2026-04-14 20:40 399K
20260414T18Z_MSC_RDPS_AirTemp_IsbL-0001_RLatLon0.09_PT002H.grib2 2026-04-14 20:40 316K
20260414T18Z_MSC_RDPS_AirTemp_IsbL-0005_RLatLon0.09_PT002H.grib2 2026-04-14 20:40 244K
20260414T18Z_MSC_RDPS_AirTemp_IsbL-0010_RLatLon0.09_PT002H.grib2 2026-04-14 20:40 325K
20260414T18Z_MSC_RDPS_AirTemp_IsbL-0020_RLatLon0.09_PT002H.grib2 2026-04-14 20:40 340K
20260414T18Z_MSC_RDPS_AirTemp_IsbL-0030_RLatLon0.09_PT002H.grib2 2026-04-14 20:40 358K
20260414T18Z_MSC_RDPS_AirTemp_IsbL-0050_RLatLon0.09_PT002H.grib2 2026-04-14 20:40 309K
20260414T18Z_MSC_RDPS_AirTemp_IsbL-0100_RLatLon0.09_PT002H.grib2 2026-04-14 20:40 379K
20260414T18Z_MSC_RDPS_AirTemp_IsbL-0150_RLatLon0.09_PT002H.grib2 2026-04-14 20:40 391K
20260414T18Z_MSC_RDPS_AirTemp_IsbL-0175_RLatLon0.09_PT002H.grib2 2026-04-14 20:40 394K
20260414T18Z_MSC_RDPS_AirTemp_IsbL-0200_RLatLon0.09_PT002H.grib2 2026-04-14 20:40 399K
20260414T18Z_MSC_RDPS_AirTemp_IsbL-0225_RLatLon0.09_PT002H.grib2 2026-04-14 20:40 403K
20260414T18Z_MSC_RDPS_AirTemp_IsbL-0250_RLatLon0.09_PT002H.grib2 2026-04-14 20:40 410K
20260414T18Z_MSC_RDPS_AirTemp_IsbL-0275_RLatLon0.09_PT002H.grib2 2026-04-14 20:40 396K
20260414T18Z_MSC_RDPS_AirTemp_IsbL-0300_RLatLon0.09_PT002H.grib2 2026-04-14 20:40 428K
20260414T18Z_MSC_RDPS_AirTemp_IsbL-0350_RLatLon0.09_PT002H.grib2 2026-04-14 20:40 417K
20260414T18Z_MSC_RDPS_AirTemp_IsbL-0400_RLatLon0.09_PT002H.grib2 2026-04-14 20:40 385K
20260414T18Z_MSC_RDPS_AirTemp_IsbL-0450_RLatLon0.09_PT002H.grib2 2026-04-14 20:40 393K
20260414T18Z_MSC_RDPS_AirTemp_IsbL-0500_RLatLon0.09_PT002H.grib2 2026-04-14 20:40 407K
20260414T18Z_MSC_RDPS_AirTemp_IsbL-0550_RLatLon0.09_PT002H.grib2 2026-04-14 20:40 428K
20260414T18Z_MSC_RDPS_AirTemp_IsbL-0600_RLatLon0.09_PT002H.grib2 2026-04-14 20:40 446K
20260414T18Z_MSC_RDPS_AirTemp_IsbL-0650_RLatLon0.09_PT002H.grib2 2026-04-14 20:40 357K
20260414T18Z_MSC_RDPS_AirTemp_IsbL-0700_RLatLon0.09_PT002H.grib2 2026-04-14 20:40 378K
20260414T18Z_MSC_RDPS_AirTemp_IsbL-0750_RLatLon0.09_PT002H.grib2 2026-04-14 20:40 414K
20260414T18Z_MSC_RDPS_AirTemp_IsbL-0800_RLatLon0.09_PT002H.grib2 2026-04-14 20:40 459K
20260414T18Z_MSC_RDPS_AirTemp_IsbL-0850_RLatLon0.09_PT002H.grib2 2026-04-14 20:40 501K
20260414T18Z_MSC_RDPS_AirTemp_IsbL-0875_RLatLon0.09_PT002H.grib2 2026-04-14 20:40 510K
20260414T18Z_MSC_RDPS_AirTemp_IsbL-0900_RLatLon0.09_PT002H.grib2 2026-04-14 20:40 512K
20260414T18Z_MSC_RDPS_AirTemp_IsbL-0925_RLatLon0.09_PT002H.grib2 2026-04-14 20:40 515K
20260414T18Z_MSC_RDPS_AirTemp_IsbL-0950_RLatLon0.09_PT002H.grib2 2026-04-14 20:40 528K
20260414T18Z_MSC_RDPS_AirTemp_IsbL-0970_RLatLon0.09_PT002H.grib2 2026-04-14 20:40 527K
20260414T18Z_MSC_RDPS_AirTemp_IsbL-0985_RLatLon0.09_PT002H.grib2 2026-04-14 20:40 517K
20260414T18Z_MSC_RDPS_AirTemp_IsbL-1000_RLatLon0.09_PT002H.grib2 2026-04-14 20:40 506K
20260414T18Z_MSC_RDPS_AirTemp_IsbL-1015_RLatLon0.09_PT002H.grib2 2026-04-14 20:40 502K
20260414T18Z_MSC_RDPS_Albedo_Sfc_RLatLon0.09_PT002H.grib2 2026-04-14 20:40 168K
20260414T18Z_MSC_RDPS_CAPE_Sfc_RLatLon0.09_PT002H.grib2 2026-04-14 20:40 1.7M
20260414T18Z_MSC_RDPS_CIN_Sfc_RLatLon0.09_PT002H.grib2 2026-04-14 20:40 1.3M
20260414T18Z_MSC_RDPS_CloudWater_EAtm_RLatLon0.09_PT002H.grib2 2026-04-14 20:40 206K
20260414T18Z_MSC_RDPS_ConvectivePrecip-Accum_Sfc_RLatLon0.09_PT002H.grib2 2026-04-14 20:40 394K
20260414T18Z_MSC_RDPS_DewPointDepression_AGL-2m_RLatLon0.09_PT002H.grib2 2026-04-14 20:40 404K
20260414T18Z_MSC_RDPS_DewPointDepression_IsbL-0001_RLatLon0.09_PT002H.grib2 2026-04-14 20:40 193
20260414T18Z_MSC_RDPS_DewPointDepression_IsbL-0005_RLatLon0.09_PT002H.grib2 2026-04-14 20:40 193
20260414T18Z_MSC_RDPS_DewPointDepression_IsbL-0010_RLatLon0.09_PT002H.grib2 2026-04-14 20:40 193
20260414T18Z_MSC_RDPS_DewPointDepression_IsbL-0020_RLatLon0.09_PT002H.grib2 2026-04-14 20:40 193
20260414T18Z_MSC_RDPS_DewPointDepression_IsbL-0030_RLatLon0.09_PT002H.grib2 2026-04-14 20:40 24K
20260414T18Z_MSC_RDPS_DewPointDepression_IsbL-0050_RLatLon0.09_PT002H.grib2 2026-04-14 20:40 104K
20260414T18Z_MSC_RDPS_DewPointDepression_IsbL-0100_RLatLon0.09_PT002H.grib2 2026-04-14 20:40 125K
20260414T18Z_MSC_RDPS_DewPointDepression_IsbL-0150_RLatLon0.09_PT002H.grib2 2026-04-14 20:40 140K
20260414T18Z_MSC_RDPS_DewPointDepression_IsbL-0175_RLatLon0.09_PT002H.grib2 2026-04-14 20:40 170K
20260414T18Z_MSC_RDPS_DewPointDepression_IsbL-0200_RLatLon0.09_PT002H.grib2 2026-04-14 20:40 199K
20260414T18Z_MSC_RDPS_DewPointDepression_IsbL-0225_RLatLon0.09_PT002H.grib2 2026-04-14 20:40 240K
20260414T18Z_MSC_RDPS_DewPointDepression_IsbL-0250_RLatLon0.09_PT002H.grib2 2026-04-14 20:40 280K
20260414T18Z_MSC_RDPS_DewPointDepression_IsbL-0275_RLatLon0.09_PT002H.grib2 2026-04-14 20:40 294K
20260414T18Z_MSC_RDPS_DewPointDepression_IsbL-0300_RLatLon0.09_PT002H.grib2 2026-04-14 20:40 311K
20260414T18Z_MSC_RDPS_DewPointDepression_IsbL-0350_RLatLon0.09_PT002H.grib2 2026-04-14 20:40 321K
20260414T18Z_MSC_RDPS_DewPointDepression_IsbL-0400_RLatLon0.09_PT002H.grib2 2026-04-14 20:40 328K
20260414T18Z_MSC_RDPS_DewPointDepression_IsbL-0450_RLatLon0.09_PT002H.grib2 2026-04-14 20:40 333K
20260414T18Z_MSC_RDPS_DewPointDepression_IsbL-0500_RLatLon0.09_PT002H.grib2 2026-04-14 20:40 341K
20260414T18Z_MSC_RDPS_DewPointDepression_IsbL-0550_RLatLon0.09_PT002H.grib2 2026-04-14 20:40 354K
20260414T18Z_MSC_RDPS_DewPointDepression_IsbL-0600_RLatLon0.09_PT002H.grib2 2026-04-14 20:40 362K
20260414T18Z_MSC_RDPS_DewPointDepression_IsbL-0650_RLatLon0.09_PT002H.grib2 2026-04-14 20:40 370K
20260414T18Z_MSC_RDPS_DewPointDepression_IsbL-0700_RLatLon0.09_PT002H.grib2 2026-04-14 20:40 383K
20260414T18Z_MSC_RDPS_DewPointDepression_IsbL-0750_RLatLon0.09_PT002H.grib2 2026-04-14 20:40 404K
20260414T18Z_MSC_RDPS_DewPointDepression_IsbL-0800_RLatLon0.09_PT002H.grib2 2026-04-14 20:40 435K
20260414T18Z_MSC_RDPS_DewPointDepression_IsbL-0850_RLatLon0.09_PT002H.grib2 2026-04-14 20:40 466K
20260414T18Z_MSC_RDPS_DewPointDepression_IsbL-0875_RLatLon0.09_PT002H.grib2 2026-04-14 20:40 458K
20260414T18Z_MSC_RDPS_DewPointDepression_IsbL-0900_RLatLon0.09_PT002H.grib2 2026-04-14 20:40 447K
20260414T18Z_MSC_RDPS_DewPointDepression_IsbL-0925_RLatLon0.09_PT002H.grib2 2026-04-14 20:40 439K
20260414T18Z_MSC_RDPS_DewPointDepression_IsbL-0950_RLatLon0.09_PT002H.grib2 2026-04-14 20:40 433K
20260414T18Z_MSC_RDPS_DewPointDepression_IsbL-0970_RLatLon0.09_PT002H.grib2 2026-04-14 20:40 429K
20260414T18Z_MSC_RDPS_DewPointDepression_IsbL-0985_RLatLon0.09_PT002H.grib2 2026-04-14 20:40 424K
20260414T18Z_MSC_RDPS_DewPointDepression_IsbL-1000_RLatLon0.09_PT002H.grib2 2026-04-14 20:40 419K
20260414T18Z_MSC_RDPS_DewPointDepression_IsbL-1015_RLatLon0.09_PT002H.grib2 2026-04-14 20:40 411K
20260414T18Z_MSC_RDPS_DewPoint_AGL-2m_RLatLon0.09_PT002H.grib2 2026-04-14 20:40 390K
20260414T18Z_MSC_RDPS_DownwardLongwaveRadiationFlux-Accum_Sfc_RLatLon0.09_PT002H.grib2 2026-04-14 20:40 497K
20260414T18Z_MSC_RDPS_DownwardShortwaveRadiationFlux-Accum_NTAtm_RLatLon0.09_PT002H.grib2 2026-04-14 20:40 146K
20260414T18Z_MSC_RDPS_DownwardShortwaveRadiationFlux-Accum_Sfc_RLatLon0.09_PT002H.grib2 2026-04-14 20:40 558K
20260414T18Z_MSC_RDPS_FreezingRain-Accum1h_Sfc_RLatLon0.09_PT002H.grib2 2026-04-14 20:40 13K
20260414T18Z_MSC_RDPS_FreezingRain-Accum_Sfc_RLatLon0.09_PT002H.grib2 2026-04-14 20:40 15K
20260414T18Z_MSC_RDPS_GeopotentialHeight_IsbL-0001_RLatLon0.09_PT002H.grib2 2026-04-14 20:40 213K
20260414T18Z_MSC_RDPS_GeopotentialHeight_IsbL-0005_RLatLon0.09_PT002H.grib2 2026-04-14 20:40 267K
20260414T18Z_MSC_RDPS_GeopotentialHeight_IsbL-0010_RLatLon0.09_PT002H.grib2 2026-04-14 20:40 309K
20260414T18Z_MSC_RDPS_GeopotentialHeight_IsbL-0020_RLatLon0.09_PT002H.grib2 2026-04-14 20:40 307K
20260414T18Z_MSC_RDPS_GeopotentialHeight_IsbL-0030_RLatLon0.09_PT002H.grib2 2026-04-14 20:40 308K
20260414T18Z_MSC_RDPS_GeopotentialHeight_IsbL-0050_RLatLon0.09_PT002H.grib2 2026-04-14 20:40 238K
20260414T18Z_MSC_RDPS_GeopotentialHeight_IsbL-0100_RLatLon0.09_PT002H.grib2 2026-04-14 20:40 222K
20260414T18Z_MSC_RDPS_GeopotentialHeight_IsbL-0150_RLatLon0.09_PT002H.grib2 2026-04-14 20:40 263K
20260414T18Z_MSC_RDPS_GeopotentialHeight_IsbL-0175_RLatLon0.09_PT002H.grib2 2026-04-14 20:40 263K
20260414T18Z_MSC_RDPS_GeopotentialHeight_IsbL-0200_RLatLon0.09_PT002H.grib2 2026-04-14 20:40 264K
20260414T18Z_MSC_RDPS_GeopotentialHeight_IsbL-0225_RLatLon0.09_PT002H.grib2 2026-04-14 20:40 265K
20260414T18Z_MSC_RDPS_GeopotentialHeight_IsbL-0250_RLatLon0.09_PT002H.grib2 2026-04-14 20:40 267K
20260414T18Z_MSC_RDPS_GeopotentialHeight_IsbL-0275_RLatLon0.09_PT002H.grib2 2026-04-14 20:40 266K
20260414T18Z_MSC_RDPS_GeopotentialHeight_IsbL-0300_RLatLon0.09_PT002H.grib2 2026-04-14 20:40 266K
20260414T18Z_MSC_RDPS_GeopotentialHeight_IsbL-0350_RLatLon0.09_PT002H.grib2 2026-04-14 20:40 261K
20260414T18Z_MSC_RDPS_GeopotentialHeight_IsbL-0400_RLatLon0.09_PT002H.grib2 2026-04-14 20:40 257K
20260414T18Z_MSC_RDPS_GeopotentialHeight_IsbL-0450_RLatLon0.09_PT002H.grib2 2026-04-14 20:40 222K
20260414T18Z_MSC_RDPS_GeopotentialHeight_IsbL-0500_RLatLon0.09_PT002H.grib2 2026-04-14 20:40 219K
20260414T18Z_MSC_RDPS_GeopotentialHeight_IsbL-0550_RLatLon0.09_PT002H.grib2 2026-04-14 20:40 287K
20260414T18Z_MSC_RDPS_GeopotentialHeight_IsbL-0600_RLatLon0.09_PT002H.grib2 2026-04-14 20:40 283K
20260414T18Z_MSC_RDPS_GeopotentialHeight_IsbL-0650_RLatLon0.09_PT002H.grib2 2026-04-14 20:40 282K
20260414T18Z_MSC_RDPS_GeopotentialHeight_IsbL-0700_RLatLon0.09_PT002H.grib2 2026-04-14 20:40 282K
20260414T18Z_MSC_RDPS_GeopotentialHeight_IsbL-0750_RLatLon0.09_PT002H.grib2 2026-04-14 20:40 256K
20260414T18Z_MSC_RDPS_GeopotentialHeight_IsbL-0800_RLatLon0.09_PT002H.grib2 2026-04-14 20:40 265K
20260414T18Z_MSC_RDPS_GeopotentialHeight_IsbL-0850_RLatLon0.09_PT002H.grib2 2026-04-14 20:40 273K
20260414T18Z_MSC_RDPS_GeopotentialHeight_IsbL-0875_RLatLon0.09_PT002H.grib2 2026-04-14 20:40 361K
20260414T18Z_MSC_RDPS_GeopotentialHeight_IsbL-0900_RLatLon0.09_PT002H.grib2 2026-04-14 20:40 363K
20260414T18Z_MSC_RDPS_GeopotentialHeight_IsbL-0925_RLatLon0.09_PT002H.grib2 2026-04-14 20:40 367K
20260414T18Z_MSC_RDPS_GeopotentialHeight_IsbL-0950_RLatLon0.09_PT002H.grib2 2026-04-14 20:40 371K
20260414T18Z_MSC_RDPS_GeopotentialHeight_IsbL-0970_RLatLon0.09_PT002H.grib2 2026-04-14 20:40 378K
20260414T18Z_MSC_RDPS_GeopotentialHeight_IsbL-0985_RLatLon0.09_PT002H.grib2 2026-04-14 20:40 387K
20260414T18Z_MSC_RDPS_GeopotentialHeight_IsbL-1000_RLatLon0.09_PT002H.grib2 2026-04-14 20:40 399K
20260414T18Z_MSC_RDPS_GeopotentialHeight_IsbL-1015_RLatLon0.09_PT002H.grib2 2026-04-14 20:40 413K
20260414T18Z_MSC_RDPS_Humidex_Sfc_RLatLon0.09_PT002H.grib2 2026-04-14 20:40 2.4M
20260414T18Z_MSC_RDPS_IcePellets-Accum1h_Sfc_RLatLon0.09_PT002H.grib2 2026-04-14 20:40 2.0K
20260414T18Z_MSC_RDPS_IcePellets-Accum_Sfc_RLatLon0.09_PT002H.grib2 2026-04-14 20:40 2.7K
20260414T18Z_MSC_RDPS_KIndex_Sfc_RLatLon0.09_PT002H.grib2 2026-04-14 20:40 2.3M
20260414T18Z_MSC_RDPS_LatentHeatNetFlux_Sfc_RLatLon0.09_PT002H.grib2 2026-04-14 20:40 286K
20260414T18Z_MSC_RDPS_LiftedIndex-MU-VT_IsbL-0500_RLatLon0.09_PT002H.grib2 2026-04-14 20:40 2.4M
20260414T18Z_MSC_RDPS_NetLongwaveRadiationFlux-Accum_Sfc_RLatLon0.09_PT002H.grib2 2026-04-14 20:40 522K
20260414T18Z_MSC_RDPS_NetShortwaveRadiationFlux-Accum_Sfc_RLatLon0.09_PT002H.grib2 2026-04-14 20:40 551K
20260414T18Z_MSC_RDPS_PlanetaryBoundaryLayerHeight_Sfc_RLatLon0.09_PT002H.grib2 2026-04-14 20:40 1.0M
20260414T18Z_MSC_RDPS_Precip-Accum1h_Sfc_RLatLon0.09_PT002H.grib2 2026-04-14 20:40 1.1M
20260414T18Z_MSC_RDPS_Precip-Accum_Sfc_RLatLon0.09_PT002H.grib2 2026-04-14 20:40 1.2M
20260414T18Z_MSC_RDPS_PrecipRate_Sfc_RLatLon0.09_PT002H.grib2 2026-04-14 20:40 161K
20260414T18Z_MSC_RDPS_PrecipType-Instant_Sfc_RLatLon0.09_PT002H.grib2 2026-04-14 20:40 560K
20260414T18Z_MSC_RDPS_Pressure_MSL_RLatLon0.09_PT002H.grib2 2026-04-14 20:40 332K
20260414T18Z_MSC_RDPS_Pressure_PVU-1.5_RLatLon0.09_PT002H.grib2 2026-04-14 20:40 2.4M
20260414T18Z_MSC_RDPS_Pressure_PVU-1_RLatLon0.09_PT002H.grib2 2026-04-14 20:40 2.4M
20260414T18Z_MSC_RDPS_Pressure_PVU-2_RLatLon0.09_PT002H.grib2 2026-04-14 20:40 2.4M
20260414T18Z_MSC_RDPS_Pressure_Sfc_RLatLon0.09_PT002H.grib2 2026-04-14 20:40 501K
20260414T18Z_MSC_RDPS_RadiativeTemp_Sfc_RLatLon0.09_PT002H.grib2 2026-04-14 20:40 325K
20260414T18Z_MSC_RDPS_Rain-Accum1h_Sfc_RLatLon0.09_PT002H.grib2 2026-04-14 20:40 507K
20260414T18Z_MSC_RDPS_Rain-Accum_Sfc_RLatLon0.09_PT002H.grib2 2026-04-14 20:40 820K
20260414T18Z_MSC_RDPS_RelativeHumidity_AGL-2m_RLatLon0.09_PT002H.grib2 2026-04-14 20:40 1.0M
20260414T18Z_MSC_RDPS_RelativeHumidity_IsbL-0010_RLatLon0.09_PT002H.grib2 2026-04-14 20:39 420K
20260414T18Z_MSC_RDPS_RelativeHumidity_IsbL-0020_RLatLon0.09_PT002H.grib2 2026-04-14 20:40 392K
20260414T18Z_MSC_RDPS_RelativeHumidity_IsbL-0030_RLatLon0.09_PT002H.grib2 2026-04-14 20:39 351K
20260414T18Z_MSC_RDPS_RelativeHumidity_IsbL-0050_RLatLon0.09_PT002H.grib2 2026-04-14 20:40 380K
20260414T18Z_MSC_RDPS_RelativeHumidity_IsbL-0100_RLatLon0.09_PT002H.grib2 2026-04-14 20:40 263K
20260414T18Z_MSC_RDPS_RelativeHumidity_IsbL-0150_RLatLon0.09_PT002H.grib2 2026-04-14 20:40 374K
20260414T18Z_MSC_RDPS_RelativeHumidity_IsbL-0175_RLatLon0.09_PT002H.grib2 2026-04-14 20:40 454K
20260414T18Z_MSC_RDPS_RelativeHumidity_IsbL-0200_RLatLon0.09_PT002H.grib2 2026-04-14 20:39 517K
20260414T18Z_MSC_RDPS_RelativeHumidity_IsbL-0225_RLatLon0.09_PT002H.grib2 2026-04-14 20:40 584K
20260414T18Z_MSC_RDPS_RelativeHumidity_IsbL-0250_RLatLon0.09_PT002H.grib2 2026-04-14 20:40 652K
20260414T18Z_MSC_RDPS_RelativeHumidity_IsbL-0275_RLatLon0.09_PT002H.grib2 2026-04-14 20:40 684K
20260414T18Z_MSC_RDPS_RelativeHumidity_IsbL-0300_RLatLon0.09_PT002H.grib2 2026-04-14 20:40 728K
20260414T18Z_MSC_RDPS_RelativeHumidity_IsbL-0350_RLatLon0.09_PT002H.grib2 2026-04-14 20:40 753K
20260414T18Z_MSC_RDPS_RelativeHumidity_IsbL-0400_RLatLon0.09_PT002H.grib2 2026-04-14 20:40 766K
20260414T18Z_MSC_RDPS_RelativeHumidity_IsbL-0450_RLatLon0.09_PT002H.grib2 2026-04-14 20:40 776K
20260414T18Z_MSC_RDPS_RelativeHumidity_IsbL-0500_RLatLon0.09_PT002H.grib2 2026-04-14 20:40 795K
20260414T18Z_MSC_RDPS_RelativeHumidity_IsbL-0550_RLatLon0.09_PT002H.grib2 2026-04-14 20:39 814K
20260414T18Z_MSC_RDPS_RelativeHumidity_IsbL-0600_RLatLon0.09_PT002H.grib2 2026-04-14 20:39 833K
20260414T18Z_MSC_RDPS_RelativeHumidity_IsbL-0650_RLatLon0.09_PT002H.grib2 2026-04-14 20:40 847K
20260414T18Z_MSC_RDPS_RelativeHumidity_IsbL-0700_RLatLon0.09_PT002H.grib2 2026-04-14 20:40 870K
20260414T18Z_MSC_RDPS_RelativeHumidity_IsbL-0750_RLatLon0.09_PT002H.grib2 2026-04-14 20:40 916K
20260414T18Z_MSC_RDPS_RelativeHumidity_IsbL-0800_RLatLon0.09_PT002H.grib2 2026-04-14 20:40 1.0M
20260414T18Z_MSC_RDPS_RelativeHumidity_IsbL-0850_RLatLon0.09_PT002H.grib2 2026-04-14 20:40 1.0M
20260414T18Z_MSC_RDPS_RelativeHumidity_IsbL-0875_RLatLon0.09_PT002H.grib2 2026-04-14 20:40 1.0M
20260414T18Z_MSC_RDPS_RelativeHumidity_IsbL-0900_RLatLon0.09_PT002H.grib2 2026-04-14 20:39 1.0M
20260414T18Z_MSC_RDPS_RelativeHumidity_IsbL-0925_RLatLon0.09_PT002H.grib2 2026-04-14 20:39 1.0M
20260414T18Z_MSC_RDPS_RelativeHumidity_IsbL-0950_RLatLon0.09_PT002H.grib2 2026-04-14 20:39 1.0M
20260414T18Z_MSC_RDPS_RelativeHumidity_IsbL-0970_RLatLon0.09_PT002H.grib2 2026-04-14 20:39 1.0M
20260414T18Z_MSC_RDPS_RelativeHumidity_IsbL-0985_RLatLon0.09_PT002H.grib2 2026-04-14 20:39 1.0M
20260414T18Z_MSC_RDPS_RelativeHumidity_IsbL-1000_RLatLon0.09_PT002H.grib2 2026-04-14 20:39 1.0M
20260414T18Z_MSC_RDPS_RelativeHumidity_IsbL-1015_RLatLon0.09_PT002H.grib2 2026-04-14 20:39 1.0M
20260414T18Z_MSC_RDPS_Runoff-Accum_Sfc_RLatLon0.09_PT002H.grib2 2026-04-14 20:39 24K
20260414T18Z_MSC_RDPS_SWEATIndex_Sfc_RLatLon0.09_PT002H.grib2 2026-04-14 20:40 2.4M
20260414T18Z_MSC_RDPS_SeeingIndex_EAtm_RLatLon0.09_PT002H.grib2 2026-04-14 20:40 1.0M
20260414T18Z_MSC_RDPS_SensibleHeatNetFlux_Sfc_RLatLon0.09_PT002H.grib2 2026-04-14 20:39 358K
20260414T18Z_MSC_RDPS_ShowalterIndex_IsbL-0500_RLatLon0.09_PT002H.grib2 2026-04-14 20:40 2.6M
20260414T18Z_MSC_RDPS_SkyTransparencyIndex_EAtm_RLatLon0.09_PT002H.grib2 2026-04-14 20:40 671K
20260414T18Z_MSC_RDPS_Snow-Accum1h_Sfc_RLatLon0.09_PT002H.grib2 2026-04-14 20:40 409K
20260414T18Z_MSC_RDPS_Snow-Accum_Sfc_RLatLon0.09_PT002H.grib2 2026-04-14 20:39 570K
20260414T18Z_MSC_RDPS_SnowDensity_Sfc_RLatLon0.09_PT002H.grib2 2026-04-14 20:39 170K
20260414T18Z_MSC_RDPS_SnowDepth_Sfc_RLatLon0.09_PT002H.grib2 2026-04-14 20:40 713K
20260414T18Z_MSC_RDPS_SoilTemp_DBS-0to10cm_RLatLon0.09_PT002H.grib2 2026-04-14 20:40 191K
20260414T18Z_MSC_RDPS_SoilTemp_Sfc_RLatLon0.09_PT002H.grib2 2026-04-14 20:39 283K
20260414T18Z_MSC_RDPS_SoilVolumetricIceContent_Sfc_RLatLon0.09_PT002H.grib2 2026-04-14 20:39 176K
20260414T18Z_MSC_RDPS_SoilVolumetricWaterContent_DBS-0to10cm_RLatLon0.09_PT002H.grib2 2026-04-14 20:39 243K
20260414T18Z_MSC_RDPS_SoilVolumetricWaterContent_DBS-0to1cm_RLatLon0.09_PT002H.grib2 2026-04-14 20:39 329K
20260414T18Z_MSC_RDPS_SpecificHumidity_AGL-120m_RLatLon0.09_PT002H.grib2 2026-04-14 20:39 463K
20260414T18Z_MSC_RDPS_SpecificHumidity_AGL-2m_RLatLon0.09_PT002H.grib2 2026-04-14 20:39 624K
20260414T18Z_MSC_RDPS_SpecificHumidity_AGL-40m_RLatLon0.09_PT002H.grib2 2026-04-14 20:39 468K
20260414T18Z_MSC_RDPS_SpecificHumidity_AGL-80m_RLatLon0.09_PT002H.grib2 2026-04-14 20:39 464K
20260414T18Z_MSC_RDPS_SpecificHumidity_IsbL-0001_RLatLon0.09_PT002H.grib2 2026-04-14 20:39 307K
20260414T18Z_MSC_RDPS_SpecificHumidity_IsbL-0005_RLatLon0.09_PT002H.grib2 2026-04-14 20:39 337K
20260414T18Z_MSC_RDPS_SpecificHumidity_IsbL-0010_RLatLon0.09_PT002H.grib2 2026-04-14 20:39 360K
20260414T18Z_MSC_RDPS_SpecificHumidity_IsbL-0020_RLatLon0.09_PT002H.grib2 2026-04-14 20:39 368K
20260414T18Z_MSC_RDPS_SpecificHumidity_IsbL-0030_RLatLon0.09_PT002H.grib2 2026-04-14 20:39 470K
20260414T18Z_MSC_RDPS_SpecificHumidity_IsbL-0050_RLatLon0.09_PT002H.grib2 2026-04-14 20:39 494K
20260414T18Z_MSC_RDPS_SpecificHumidity_IsbL-0100_RLatLon0.09_PT002H.grib2 2026-04-14 20:40 390K
20260414T18Z_MSC_RDPS_SpecificHumidity_IsbL-0150_RLatLon0.09_PT002H.grib2 2026-04-14 20:39 327K
20260414T18Z_MSC_RDPS_SpecificHumidity_IsbL-0175_RLatLon0.09_PT002H.grib2 2026-04-14 20:39 412K
20260414T18Z_MSC_RDPS_SpecificHumidity_IsbL-0200_RLatLon0.09_PT002H.grib2 2026-04-14 20:39 435K
20260414T18Z_MSC_RDPS_SpecificHumidity_IsbL-0225_RLatLon0.09_PT002H.grib2 2026-04-14 20:39 425K
20260414T18Z_MSC_RDPS_SpecificHumidity_IsbL-0250_RLatLon0.09_PT002H.grib2 2026-04-14 20:40 485K
20260414T18Z_MSC_RDPS_SpecificHumidity_IsbL-0275_RLatLon0.09_PT002H.grib2 2026-04-14 20:40 451K
20260414T18Z_MSC_RDPS_SpecificHumidity_IsbL-0300_RLatLon0.09_PT002H.grib2 2026-04-14 20:40 427K
20260414T18Z_MSC_RDPS_SpecificHumidity_IsbL-0350_RLatLon0.09_PT002H.grib2 2026-04-14 20:40 544K
20260414T18Z_MSC_RDPS_SpecificHumidity_IsbL-0400_RLatLon0.09_PT002H.grib2 2026-04-14 20:40 497K
20260414T18Z_MSC_RDPS_SpecificHumidity_IsbL-0450_RLatLon0.09_PT002H.grib2 2026-04-14 20:39 437K
20260414T18Z_MSC_RDPS_SpecificHumidity_IsbL-0500_RLatLon0.09_PT002H.grib2 2026-04-14 20:40 487K
20260414T18Z_MSC_RDPS_SpecificHumidity_IsbL-0550_RLatLon0.09_PT002H.grib2 2026-04-14 20:40 561K
20260414T18Z_MSC_RDPS_SpecificHumidity_IsbL-0600_RLatLon0.09_PT002H.grib2 2026-04-14 20:40 609K
20260414T18Z_MSC_RDPS_SpecificHumidity_IsbL-0650_RLatLon0.09_PT002H.grib2 2026-04-14 20:40 528K
20260414T18Z_MSC_RDPS_SpecificHumidity_IsbL-0700_RLatLon0.09_PT002H.grib2 2026-04-14 20:40 569K
20260414T18Z_MSC_RDPS_SpecificHumidity_IsbL-0750_RLatLon0.09_PT002H.grib2 2026-04-14 20:40 626K
20260414T18Z_MSC_RDPS_SpecificHumidity_IsbL-0800_RLatLon0.09_PT002H.grib2 2026-04-14 20:40 712K
20260414T18Z_MSC_RDPS_SpecificHumidity_IsbL-0850_RLatLon0.09_PT002H.grib2 2026-04-14 20:40 781K
20260414T18Z_MSC_RDPS_SpecificHumidity_IsbL-0875_RLatLon0.09_PT002H.grib2 2026-04-14 20:39 796K
20260414T18Z_MSC_RDPS_SpecificHumidity_IsbL-0900_RLatLon0.09_PT002H.grib2 2026-04-14 20:40 802K
20260414T18Z_MSC_RDPS_SpecificHumidity_IsbL-0925_RLatLon0.09_PT002H.grib2 2026-04-14 20:40 669K
20260414T18Z_MSC_RDPS_SpecificHumidity_IsbL-0950_RLatLon0.09_PT002H.grib2 2026-04-14 20:40 670K
20260414T18Z_MSC_RDPS_SpecificHumidity_IsbL-0970_RLatLon0.09_PT002H.grib2 2026-04-14 20:40 667K
20260414T18Z_MSC_RDPS_SpecificHumidity_IsbL-0985_RLatLon0.09_PT002H.grib2 2026-04-14 20:40 659K
20260414T18Z_MSC_RDPS_SpecificHumidity_IsbL-1000_RLatLon0.09_PT002H.grib2 2026-04-14 20:40 647K
20260414T18Z_MSC_RDPS_SpecificHumidity_IsbL-1015_RLatLon0.09_PT002H.grib2 2026-04-14 20:40 635K
20260414T18Z_MSC_RDPS_SpecificHumidity_Sfc_RLatLon0.09_PT002H.grib2 2026-04-14 20:40 322K
20260414T18Z_MSC_RDPS_StormRelativeHelicity_EtaL-10000_RLatLon0.09_PT002H.grib2 2026-04-14 20:40 1.1M
20260414T18Z_MSC_RDPS_StormSeverityIndex_EtaL-10000_RLatLon0.09_PT002H.grib2 2026-04-14 20:40 1.2M
20260414T18Z_MSC_RDPS_Thickness_IsbL-0850to0700_RLatLon0.09_PT002H.grib2 2026-04-14 20:40 178K
20260414T18Z_MSC_RDPS_Thickness_IsbL-1000to0500_RLatLon0.09_PT002H.grib2 2026-04-14 20:40 200K
20260414T18Z_MSC_RDPS_Thickness_IsbL-1000to0850_RLatLon0.09_PT002H.grib2 2026-04-14 20:40 189K
20260414T18Z_MSC_RDPS_TotalCloudCover_Sfc_RLatLon0.09_PT002H.grib2 2026-04-14 20:40 641K
20260414T18Z_MSC_RDPS_TotalTotalsIndex_Sfc_RLatLon0.09_PT002H.grib2 2026-04-14 20:40 2.4M
20260414T18Z_MSC_RDPS_UVIndex-ClearSky_Sfc_RLatLon0.09_PT002H.grib2 2026-04-14 20:39 202K
20260414T18Z_MSC_RDPS_UVIndex_Sfc_RLatLon0.09_PT002H.grib2 2026-04-14 20:40 467K
20260414T18Z_MSC_RDPS_UpwardLongwaveRadiationFlux_NTAtm_RLatLon0.09_PT002H.grib2 2026-04-14 20:39 372K
20260414T18Z_MSC_RDPS_UpwardShortwaveRadiationFlux_NTAtm_RLatLon0.09_PT002H.grib2 2026-04-14 20:40 511K
20260414T18Z_MSC_RDPS_VerticalVelocity_IsbL-0250_RLatLon0.09_PT002H.grib2 2026-04-14 20:40 535K
20260414T18Z_MSC_RDPS_VerticalVelocity_IsbL-0500_RLatLon0.09_PT002H.grib2 2026-04-14 20:40 565K
20260414T18Z_MSC_RDPS_VerticalVelocity_IsbL-0700_RLatLon0.09_PT002H.grib2 2026-04-14 20:40 617K
20260414T18Z_MSC_RDPS_VerticalVelocity_IsbL-0850_RLatLon0.09_PT002H.grib2 2026-04-14 20:40 695K
20260414T18Z_MSC_RDPS_VerticalWindShear_EtaL-6500_RLatLon0.09_PT002H.grib2 2026-04-14 20:39 1.2M
20260414T18Z_MSC_RDPS_WindChill_Sfc_RLatLon0.09_PT002H.grib2 2026-04-14 20:40 1.1M
20260414T18Z_MSC_RDPS_WindDir_AGL-10m_RLatLon0.09_PT002H.grib2 2026-04-14 20:40 934K
20260414T18Z_MSC_RDPS_WindDir_AGL-120m_RLatLon0.09_PT002H.grib2 2026-04-14 20:39 578K
20260414T18Z_MSC_RDPS_WindDir_AGL-40m_RLatLon0.09_PT002H.grib2 2026-04-14 20:39 602K
20260414T18Z_MSC_RDPS_WindDir_AGL-80m_RLatLon0.09_PT002H.grib2 2026-04-14 20:39 587K
20260414T18Z_MSC_RDPS_WindDir_IsbL-0001_RLatLon0.09_PT002H.grib2 2026-04-14 20:39 252K
20260414T18Z_MSC_RDPS_WindDir_IsbL-0005_RLatLon0.09_PT002H.grib2 2026-04-14 20:39 328K
20260414T18Z_MSC_RDPS_WindDir_IsbL-0010_RLatLon0.09_PT002H.grib2 2026-04-14 20:39 331K
20260414T18Z_MSC_RDPS_WindDir_IsbL-0020_RLatLon0.09_PT002H.grib2 2026-04-14 20:39 349K
20260414T18Z_MSC_RDPS_WindDir_IsbL-0030_RLatLon0.09_PT002H.grib2 2026-04-14 20:40 347K
20260414T18Z_MSC_RDPS_WindDir_IsbL-0050_RLatLon0.09_PT002H.grib2 2026-04-14 20:40 371K
20260414T18Z_MSC_RDPS_WindDir_IsbL-0100_RLatLon0.09_PT002H.grib2 2026-04-14 20:40 373K
20260414T18Z_MSC_RDPS_WindDir_IsbL-0150_RLatLon0.09_PT002H.grib2 2026-04-14 20:40 366K
20260414T18Z_MSC_RDPS_WindDir_IsbL-0175_RLatLon0.09_PT002H.grib2 2026-04-14 20:39 390K
20260414T18Z_MSC_RDPS_WindDir_IsbL-0200_RLatLon0.09_PT002H.grib2 2026-04-14 20:40 414K
20260414T18Z_MSC_RDPS_WindDir_IsbL-0225_RLatLon0.09_PT002H.grib2 2026-04-14 20:39 423K
20260414T18Z_MSC_RDPS_WindDir_IsbL-0250_RLatLon0.09_PT002H.grib2 2026-04-14 20:39 427K
20260414T18Z_MSC_RDPS_WindDir_IsbL-0275_RLatLon0.09_PT002H.grib2 2026-04-14 20:40 447K
20260414T18Z_MSC_RDPS_WindDir_IsbL-0300_RLatLon0.09_PT002H.grib2 2026-04-14 20:39 449K
20260414T18Z_MSC_RDPS_WindDir_IsbL-0350_RLatLon0.09_PT002H.grib2 2026-04-14 20:40 471K
20260414T18Z_MSC_RDPS_WindDir_IsbL-0400_RLatLon0.09_PT002H.grib2 2026-04-14 20:39 500K
20260414T18Z_MSC_RDPS_WindDir_IsbL-0450_RLatLon0.09_PT002H.grib2 2026-04-14 20:39 524K
20260414T18Z_MSC_RDPS_WindDir_IsbL-0500_RLatLon0.09_PT002H.grib2 2026-04-14 20:40 534K
20260414T18Z_MSC_RDPS_WindDir_IsbL-0550_RLatLon0.09_PT002H.grib2 2026-04-14 20:39 552K
20260414T18Z_MSC_RDPS_WindDir_IsbL-0600_RLatLon0.09_PT002H.grib2 2026-04-14 20:39 587K
20260414T18Z_MSC_RDPS_WindDir_IsbL-0650_RLatLon0.09_PT002H.grib2 2026-04-14 20:39 627K
20260414T18Z_MSC_RDPS_WindDir_IsbL-0700_RLatLon0.09_PT002H.grib2 2026-04-14 20:39 669K
20260414T18Z_MSC_RDPS_WindDir_IsbL-0750_RLatLon0.09_PT002H.grib2 2026-04-14 20:39 711K
20260414T18Z_MSC_RDPS_WindDir_IsbL-0800_RLatLon0.09_PT002H.grib2 2026-04-14 20:39 766K
20260414T18Z_MSC_RDPS_WindDir_IsbL-0850_RLatLon0.09_PT002H.grib2 2026-04-14 20:39 827K
20260414T18Z_MSC_RDPS_WindDir_IsbL-0875_RLatLon0.09_PT002H.grib2 2026-04-14 20:39 848K
20260414T18Z_MSC_RDPS_WindDir_IsbL-0900_RLatLon0.09_PT002H.grib2 2026-04-14 20:40 860K
20260414T18Z_MSC_RDPS_WindDir_IsbL-0925_RLatLon0.09_PT002H.grib2 2026-04-14 20:39 867K
20260414T18Z_MSC_RDPS_WindDir_IsbL-0950_RLatLon0.09_PT002H.grib2 2026-04-14 20:40 873K
20260414T18Z_MSC_RDPS_WindDir_IsbL-0970_RLatLon0.09_PT002H.grib2 2026-04-14 20:40 883K
20260414T18Z_MSC_RDPS_WindDir_IsbL-0985_RLatLon0.09_PT002H.grib2 2026-04-14 20:40 894K
20260414T18Z_MSC_RDPS_WindDir_IsbL-1000_RLatLon0.09_PT002H.grib2 2026-04-14 20:39 906K
20260414T18Z_MSC_RDPS_WindDir_IsbL-1015_RLatLon0.09_PT002H.grib2 2026-04-14 20:40 921K
20260414T18Z_MSC_RDPS_WindGust-Max_AGL-10m_RLatLon0.09_PT002H.grib2 2026-04-14 20:39 1.0M
20260414T18Z_MSC_RDPS_WindGust-Min_AGL-10m_RLatLon0.09_PT002H.grib2 2026-04-14 20:39 961K
20260414T18Z_MSC_RDPS_WindGust_AGL-10m_RLatLon0.09_PT002H.grib2 2026-04-14 20:40 1.0M
20260414T18Z_MSC_RDPS_WindSpeed_AGL-10m_RLatLon0.09_PT002H.grib2 2026-04-14 20:39 830K
20260414T18Z_MSC_RDPS_WindSpeed_AGL-120m_RLatLon0.09_PT002H.grib2 2026-04-14 20:39 528K
20260414T18Z_MSC_RDPS_WindSpeed_AGL-40m_RLatLon0.09_PT002H.grib2 2026-04-14 20:39 661K
20260414T18Z_MSC_RDPS_WindSpeed_AGL-80m_RLatLon0.09_PT002H.grib2 2026-04-14 20:39 530K
20260414T18Z_MSC_RDPS_WindSpeed_IsbL-0001_RLatLon0.09_PT002H.grib2 2026-04-14 20:39 290K
20260414T18Z_MSC_RDPS_WindSpeed_IsbL-0005_RLatLon0.09_PT002H.grib2 2026-04-14 20:40 298K
20260414T18Z_MSC_RDPS_WindSpeed_IsbL-0010_RLatLon0.09_PT002H.grib2 2026-04-14 20:39 332K
20260414T18Z_MSC_RDPS_WindSpeed_IsbL-0020_RLatLon0.09_PT002H.grib2 2026-04-14 20:39 349K
20260414T18Z_MSC_RDPS_WindSpeed_IsbL-0030_RLatLon0.09_PT002H.grib2 2026-04-14 20:40 314K
20260414T18Z_MSC_RDPS_WindSpeed_IsbL-0050_RLatLon0.09_PT002H.grib2 2026-04-14 20:39 350K
20260414T18Z_MSC_RDPS_WindSpeed_IsbL-0100_RLatLon0.09_PT002H.grib2 2026-04-14 20:39 473K
20260414T18Z_MSC_RDPS_WindSpeed_IsbL-0150_RLatLon0.09_PT002H.grib2 2026-04-14 20:39 360K
20260414T18Z_MSC_RDPS_WindSpeed_IsbL-0175_RLatLon0.09_PT002H.grib2 2026-04-14 20:39 383K
20260414T18Z_MSC_RDPS_WindSpeed_IsbL-0200_RLatLon0.09_PT002H.grib2 2026-04-14 20:39 403K
20260414T18Z_MSC_RDPS_WindSpeed_IsbL-0225_RLatLon0.09_PT002H.grib2 2026-04-14 20:39 434K
20260414T18Z_MSC_RDPS_WindSpeed_IsbL-0250_RLatLon0.09_PT002H.grib2 2026-04-14 20:39 438K
20260414T18Z_MSC_RDPS_WindSpeed_IsbL-0275_RLatLon0.09_PT002H.grib2 2026-04-14 20:39 454K
20260414T18Z_MSC_RDPS_WindSpeed_IsbL-0300_RLatLon0.09_PT002H.grib2 2026-04-14 20:40 453K
20260414T18Z_MSC_RDPS_WindSpeed_IsbL-0350_RLatLon0.09_PT002H.grib2 2026-04-14 20:40 462K
20260414T18Z_MSC_RDPS_WindSpeed_IsbL-0400_RLatLon0.09_PT002H.grib2 2026-04-14 20:40 447K
20260414T18Z_MSC_RDPS_WindSpeed_IsbL-0450_RLatLon0.09_PT002H.grib2 2026-04-14 20:40 451K
20260414T18Z_MSC_RDPS_WindSpeed_IsbL-0500_RLatLon0.09_PT002H.grib2 2026-04-14 20:40 454K
20260414T18Z_MSC_RDPS_WindSpeed_IsbL-0550_RLatLon0.09_PT002H.grib2 2026-04-14 20:39 457K
20260414T18Z_MSC_RDPS_WindSpeed_IsbL-0600_RLatLon0.09_PT002H.grib2 2026-04-14 20:39 587K
20260414T18Z_MSC_RDPS_WindSpeed_IsbL-0650_RLatLon0.09_PT002H.grib2 2026-04-14 20:40 608K
20260414T18Z_MSC_RDPS_WindSpeed_IsbL-0700_RLatLon0.09_PT002H.grib2 2026-04-14 20:39 673K
20260414T18Z_MSC_RDPS_WindSpeed_IsbL-0750_RLatLon0.09_PT002H.grib2 2026-04-14 20:40 704K
20260414T18Z_MSC_RDPS_WindSpeed_IsbL-0800_RLatLon0.09_PT002H.grib2 2026-04-14 20:39 756K
20260414T18Z_MSC_RDPS_WindSpeed_IsbL-0850_RLatLon0.09_PT002H.grib2 2026-04-14 20:39 813K
20260414T18Z_MSC_RDPS_WindSpeed_IsbL-0875_RLatLon0.09_PT002H.grib2 2026-04-14 20:39 831K
20260414T18Z_MSC_RDPS_WindSpeed_IsbL-0900_RLatLon0.09_PT002H.grib2 2026-04-14 20:39 844K
20260414T18Z_MSC_RDPS_WindSpeed_IsbL-0925_RLatLon0.09_PT002H.grib2 2026-04-14 20:39 852K
20260414T18Z_MSC_RDPS_WindSpeed_IsbL-0950_RLatLon0.09_PT002H.grib2 2026-04-14 20:39 849K
20260414T18Z_MSC_RDPS_WindSpeed_IsbL-0970_RLatLon0.09_PT002H.grib2 2026-04-14 20:40 849K
20260414T18Z_MSC_RDPS_WindSpeed_IsbL-0985_RLatLon0.09_PT002H.grib2 2026-04-14 20:39 845K
20260414T18Z_MSC_RDPS_WindSpeed_IsbL-1000_RLatLon0.09_PT002H.grib2 2026-04-14 20:40 841K
20260414T18Z_MSC_RDPS_WindSpeed_IsbL-1015_RLatLon0.09_PT002H.grib2 2026-04-14 20:39 830K
20260414T18Z_MSC_RDPS_WindU_AGL-10m_RLatLon0.09_PT002H.grib2 2026-04-14 20:39 429K
20260414T18Z_MSC_RDPS_WindU_AGL-120m_RLatLon0.09_PT002H.grib2 2026-04-14 20:39 527K
20260414T18Z_MSC_RDPS_WindU_AGL-40m_RLatLon0.09_PT002H.grib2 2026-04-14 20:39 531K
20260414T18Z_MSC_RDPS_WindU_AGL-80m_RLatLon0.09_PT002H.grib2 2026-04-14 20:39 529K
20260414T18Z_MSC_RDPS_WindU_IsbL-0001_RLatLon0.09_PT002H.grib2 2026-04-14 20:39 260K
20260414T18Z_MSC_RDPS_WindU_IsbL-0005_RLatLon0.09_PT002H.grib2 2026-04-14 20:39 292K
20260414T18Z_MSC_RDPS_WindU_IsbL-0010_RLatLon0.09_PT002H.grib2 2026-04-14 20:40 298K
20260414T18Z_MSC_RDPS_WindU_IsbL-0020_RLatLon0.09_PT002H.grib2 2026-04-14 20:40 314K
20260414T18Z_MSC_RDPS_WindU_IsbL-0030_RLatLon0.09_PT002H.grib2 2026-04-14 20:40 318K
20260414T18Z_MSC_RDPS_WindU_IsbL-0050_RLatLon0.09_PT002H.grib2 2026-04-14 20:40 347K
20260414T18Z_MSC_RDPS_WindU_IsbL-0100_RLatLon0.09_PT002H.grib2 2026-04-14 20:40 332K
20260414T18Z_MSC_RDPS_WindU_IsbL-0150_RLatLon0.09_PT002H.grib2 2026-04-14 20:40 379K
20260414T18Z_MSC_RDPS_WindU_IsbL-0175_RLatLon0.09_PT002H.grib2 2026-04-14 20:40 401K
20260414T18Z_MSC_RDPS_WindU_IsbL-0200_RLatLon0.09_PT002H.grib2 2026-04-14 20:40 420K
20260414T18Z_MSC_RDPS_WindU_IsbL-0225_RLatLon0.09_PT002H.grib2 2026-04-14 20:40 427K
20260414T18Z_MSC_RDPS_WindU_IsbL-0250_RLatLon0.09_PT002H.grib2 2026-04-14 20:40 334K
20260414T18Z_MSC_RDPS_WindU_IsbL-0275_RLatLon0.09_PT002H.grib2 2026-04-14 20:40 347K
20260414T18Z_MSC_RDPS_WindU_IsbL-0300_RLatLon0.09_PT002H.grib2 2026-04-14 20:40 344K
20260414T18Z_MSC_RDPS_WindU_IsbL-0350_RLatLon0.09_PT002H.grib2 2026-04-14 20:40 352K
20260414T18Z_MSC_RDPS_WindU_IsbL-0400_RLatLon0.09_PT002H.grib2 2026-04-14 20:40 354K
20260414T18Z_MSC_RDPS_WindU_IsbL-0450_RLatLon0.09_PT002H.grib2 2026-04-14 20:40 459K
20260414T18Z_MSC_RDPS_WindU_IsbL-0500_RLatLon0.09_PT002H.grib2 2026-04-14 20:40 461K
20260414T18Z_MSC_RDPS_WindU_IsbL-0550_RLatLon0.09_PT002H.grib2 2026-04-14 20:40 466K
20260414T18Z_MSC_RDPS_WindU_IsbL-0600_RLatLon0.09_PT002H.grib2 2026-04-14 20:40 478K
20260414T18Z_MSC_RDPS_WindU_IsbL-0650_RLatLon0.09_PT002H.grib2 2026-04-14 20:40 496K
20260414T18Z_MSC_RDPS_WindU_IsbL-0700_RLatLon0.09_PT002H.grib2 2026-04-14 20:40 501K
20260414T18Z_MSC_RDPS_WindU_IsbL-0750_RLatLon0.09_PT002H.grib2 2026-04-14 20:39 528K
20260414T18Z_MSC_RDPS_WindU_IsbL-0800_RLatLon0.09_PT002H.grib2 2026-04-14 20:39 573K
20260414T18Z_MSC_RDPS_WindU_IsbL-0850_RLatLon0.09_PT002H.grib2 2026-04-14 20:39 621K
20260414T18Z_MSC_RDPS_WindU_IsbL-0875_RLatLon0.09_PT002H.grib2 2026-04-14 20:39 636K
20260414T18Z_MSC_RDPS_WindU_IsbL-0900_RLatLon0.09_PT002H.grib2 2026-04-14 20:39 644K
20260414T18Z_MSC_RDPS_WindU_IsbL-0925_RLatLon0.09_PT002H.grib2 2026-04-14 20:40 649K
20260414T18Z_MSC_RDPS_WindU_IsbL-0950_RLatLon0.09_PT002H.grib2 2026-04-14 20:40 787K
20260414T18Z_MSC_RDPS_WindU_IsbL-0970_RLatLon0.09_PT002H.grib2 2026-04-14 20:40 787K
20260414T18Z_MSC_RDPS_WindU_IsbL-0985_RLatLon0.09_PT002H.grib2 2026-04-14 20:40 784K
20260414T18Z_MSC_RDPS_WindU_IsbL-1000_RLatLon0.09_PT002H.grib2 2026-04-14 20:39 780K
20260414T18Z_MSC_RDPS_WindU_IsbL-1015_RLatLon0.09_PT002H.grib2 2026-04-14 20:39 819K
20260414T18Z_MSC_RDPS_WindV_AGL-10m_RLatLon0.09_PT002H.grib2 2026-04-14 20:39 429K
20260414T18Z_MSC_RDPS_WindV_AGL-120m_RLatLon0.09_PT002H.grib2 2026-04-14 20:40 527K
20260414T18Z_MSC_RDPS_WindV_AGL-40m_RLatLon0.09_PT002H.grib2 2026-04-14 20:39 530K
20260414T18Z_MSC_RDPS_WindV_AGL-80m_RLatLon0.09_PT002H.grib2 2026-04-14 20:40 528K
20260414T18Z_MSC_RDPS_WindV_IsbL-0001_RLatLon0.09_PT002H.grib2 2026-04-14 20:39 205K
20260414T18Z_MSC_RDPS_WindV_IsbL-0005_RLatLon0.09_PT002H.grib2 2026-04-14 20:39 227K
20260414T18Z_MSC_RDPS_WindV_IsbL-0010_RLatLon0.09_PT002H.grib2 2026-04-14 20:39 296K
20260414T18Z_MSC_RDPS_WindV_IsbL-0020_RLatLon0.09_PT002H.grib2 2026-04-14 20:39 342K
20260414T18Z_MSC_RDPS_WindV_IsbL-0030_RLatLon0.09_PT002H.grib2 2026-04-14 20:40 305K
20260414T18Z_MSC_RDPS_WindV_IsbL-0050_RLatLon0.09_PT002H.grib2 2026-04-14 20:39 340K
20260414T18Z_MSC_RDPS_WindV_IsbL-0100_RLatLon0.09_PT002H.grib2 2026-04-14 20:40 328K
20260414T18Z_MSC_RDPS_WindV_IsbL-0150_RLatLon0.09_PT002H.grib2 2026-04-14 20:40 377K
20260414T18Z_MSC_RDPS_WindV_IsbL-0175_RLatLon0.09_PT002H.grib2 2026-04-14 20:39 399K
20260414T18Z_MSC_RDPS_WindV_IsbL-0200_RLatLon0.09_PT002H.grib2 2026-04-14 20:39 325K
20260414T18Z_MSC_RDPS_WindV_IsbL-0225_RLatLon0.09_PT002H.grib2 2026-04-14 20:39 331K
20260414T18Z_MSC_RDPS_WindV_IsbL-0250_RLatLon0.09_PT002H.grib2 2026-04-14 20:39 334K
20260414T18Z_MSC_RDPS_WindV_IsbL-0275_RLatLon0.09_PT002H.grib2 2026-04-14 20:39 346K
20260414T18Z_MSC_RDPS_WindV_IsbL-0300_RLatLon0.09_PT002H.grib2 2026-04-14 20:40 342K
20260414T18Z_MSC_RDPS_WindV_IsbL-0350_RLatLon0.09_PT002H.grib2 2026-04-14 20:39 347K
20260414T18Z_MSC_RDPS_WindV_IsbL-0400_RLatLon0.09_PT002H.grib2 2026-04-14 20:40 351K
20260414T18Z_MSC_RDPS_WindV_IsbL-0450_RLatLon0.09_PT002H.grib2 2026-04-14 20:40 356K
20260414T18Z_MSC_RDPS_WindV_IsbL-0500_RLatLon0.09_PT002H.grib2 2026-04-14 20:40 461K
20260414T18Z_MSC_RDPS_WindV_IsbL-0550_RLatLon0.09_PT002H.grib2 2026-04-14 20:39 464K
20260414T18Z_MSC_RDPS_WindV_IsbL-0600_RLatLon0.09_PT002H.grib2 2026-04-14 20:40 475K
20260414T18Z_MSC_RDPS_WindV_IsbL-0650_RLatLon0.09_PT002H.grib2 2026-04-14 20:39 493K
20260414T18Z_MSC_RDPS_WindV_IsbL-0700_RLatLon0.09_PT002H.grib2 2026-04-14 20:39 511K
20260414T18Z_MSC_RDPS_WindV_IsbL-0750_RLatLon0.09_PT002H.grib2 2026-04-14 20:39 523K
20260414T18Z_MSC_RDPS_WindV_IsbL-0800_RLatLon0.09_PT002H.grib2 2026-04-14 20:39 567K
20260414T18Z_MSC_RDPS_WindV_IsbL-0850_RLatLon0.09_PT002H.grib2 2026-04-14 20:39 616K
20260414T18Z_MSC_RDPS_WindV_IsbL-0875_RLatLon0.09_PT002H.grib2 2026-04-14 20:39 633K
20260414T18Z_MSC_RDPS_WindV_IsbL-0900_RLatLon0.09_PT002H.grib2 2026-04-14 20:39 643K
20260414T18Z_MSC_RDPS_WindV_IsbL-0925_RLatLon0.09_PT002H.grib2 2026-04-14 20:39 647K
20260414T18Z_MSC_RDPS_WindV_IsbL-0950_RLatLon0.09_PT002H.grib2 2026-04-14 20:39 648K
20260414T18Z_MSC_RDPS_WindV_IsbL-0970_RLatLon0.09_PT002H.grib2 2026-04-14 20:39 786K
20260414T18Z_MSC_RDPS_WindV_IsbL-0985_RLatLon0.09_PT002H.grib2 2026-04-14 20:39 784K
20260414T18Z_MSC_RDPS_WindV_IsbL-1000_RLatLon0.09_PT002H.grib2 2026-04-14 20:39 780K
20260414T18Z_MSC_RDPS_WindV_IsbL-1015_RLatLon0.09_PT002H.grib2 2026-04-14 20:39 818K